Location: Bucharest
(44.4268°N, 26.1025°E)
Time: 00:27:05
(UTC+03:00)

O/OREOS (USA 219) - Pass Details

Date: 06 July 2022
Orbit: 621 x 646 km, 72.0° (Epoch: 22 May)

Event Time Altitude Azimuth Distance (km) Brightness Sun altitude
Rises 00:38:45 0° 336° (NNW) 2,966 ? -22.2°
Reaches altitude 10° 00:41:03 10° 338° (NNW) 2,053 ? -22.3°
Maximum altitude 00:45:40 81° 65° (ENE) 659 ? -22.4°
Enters shadow 00:46:21 64° 138° (SE) 717 ? -22.4°
